| time (UTC) | temp F | wind direction | speed MPH | gust MPH | rain 1hr in | rain 24hr in | rain mn in | humidity % | barometer mb |
| 20260503184327 | 69 | 115 | 3.0 | 7.0 | 0.00 | 0.13 | 0.13 | 49 | 1024.6 |
| 20260503183823 | 70 | 335 | 6.0 | 9.0 | 0.00 | 0.13 | 0.13 | 48 | 1024.8 |
| 20260503183321 | 70 | 16 | 4.0 | 6.0 | 0.00 | 0.13 | 0.13 | 48 | 1024.9 |
| 20260503182818 | 68 | 18 | 1.0 | 5.0 | 0.00 | 0.13 | 0.13 | 48 | 1025.1 |
| 20260503182317 | 68 | 266 | 2.0 | 3.0 | 0.00 | 0.13 | 0.13 | 50 | 1025.1 |
| 20260503181814 | 68 | 0 | 3.0 | 7.0 | 0.00 | 0.13 | 0.13 | 50 | 1025.1 |
| 20260503181311 | 69 | 317 | 5.0 | 6.0 | 0.00 | 0.13 | 0.13 | 47 | 1025.3 |
| 20260503180807 | 69 | 336 | 3.0 | 3.0 | 0.00 | 0.13 | 0.13 | 47 | 1025.3 |
| 20260503180305 | 70 | 67 | 3.0 | 3.0 | 0.00 | 0.13 | 0.13 | 46 | 1025.5 |
| 20260503175801 | 69 | 54 | 4.0 | 7.0 | 0.00 | 0.13 | 0.13 | 44 | 1025.2 |
| 20260503175259 | 69 | 295 | 3.0 | 6.0 | 0.00 | 0.13 | 0.13 | 45 | 1025.3 |
| 20260503174755 | 69 | 73 | 1.0 | 5.0 | 0.00 | 0.13 | 0.13 | 43 | 1025.7 |
| 20260503174253 | 70 | 257 | 5.0 | 5.0 | 0.00 | 0.13 | 0.13 | 44 | 1025.5 |
| 20260503173748 | 70 | 157 | 5.0 | 9.0 | 0.00 | 0.13 | 0.13 | 44 | 1025.7 |
| 20260503173244 | 70 | 221 | 8.0 | 10.0 | 0.00 | 0.13 | 0.13 | 42 | 1025.9 |
| 20260503172741 | 70 | 208 | 10.0 | 11.0 | 0.00 | 0.13 | 0.13 | 42 | 1025.6 |
| 20260503172238 | 70 | 280 | 4.0 | 13.0 | 0.00 | 0.13 | 0.13 | 48 | 1025.7 |
| 20260503171735 | 69 | 259 | 2.0 | 8.0 | 0.00 | 0.13 | 0.13 | 43 | 1025.8 |
| 20260503171232 | 70 | 164 | 4.0 | 5.0 | 0.00 | 0.13 | 0.13 | 43 | 1025.8 |
| 20260503170729 | 70 | 151 | 1.0 | 10.0 | 0.00 | 0.13 | 0.13 | 46 | 1025.9 |
| 20260503170226 | 69 | 154 | 2.0 | 5.0 | 0.00 | 0.13 | 0.13 | 42 | 1025.9 |
| 20260503160147 | 67 | 132 | 1.0 | 1.0 | 0.00 | 0.13 | 0.13 | 59 | 1026.2 |
| 20260503150618 | 66 | 162 | 1.0 | 2.0 | 0.00 | 0.13 | 0.13 | 64 | 1026.2 |
| 20260503150114 | 64 | 8 | 3.0 | 5.0 | 0.00 | 0.13 | 0.13 | 63 | 1026.3 |
| 20260503131007 | 55 | 168 | 1.0 | 2.0 | 0.00 | 0.12 | 0.12 | 99 | 1025.9 |
| 20260503130505 | 56 | 197 | 2.0 | 2.0 | 0.00 | 0.12 | 0.12 | 99 | 1026.0 |
| 20260503110401 | 46 | 162 | 0.0 | 0.0 | 0.00 | 0.10 | 0.10 | 99 | 1024.8 |
| 20260503090252 | 48 | 162 | 0.0 | 0.0 | 0.00 | 0.08 | 0.08 | 99 | 1023.6 |
| 20260503081220 | 49 | 162 | 0.0 | 0.0 | 0.05 | 0.07 | 0.07 | 99 | 1023.4 |
| 20260503080715 | 49 | 162 | 0.0 | 0.0 | 0.05 | 0.07 | 0.07 | 99 | 1023.4 |
| 20260503080212 | 49 | 162 | 0.0 | 0.0 | 0.00 | 0.06 | 0.06 | 99 | 1023.4 |
| 20260503072648 | 50 | 162 | 1.0 | 1.0 | 0.00 | 0.06 | 0.06 | 99 | 1023.2 |
| 20260503072145 | 51 | 162 | 0.0 | 1.0 | 0.07 | 0.06 | 0.06 | 99 | 1023.1 |
| 20260503071642 | 51 | 162 | 0.0 | 0.0 | 0.00 | 0.05 | 0.05 | 99 | 1023.1 |
| 20260503071139 | 51 | 162 | 0.0 | 0.0 | 0.00 | 0.05 | 0.05 | 99 | 1023.0 |
| 20260503070636 | 51 | 162 | 0.0 | 0.0 | 0.00 | 0.05 | 0.05 | 99 | 1022.7 |
| 20260503070134 | 51 | 162 | 0.0 | 0.0 | 0.00 | 0.05 | 0.05 | 99 | 1022.8 |
| 20260503060104 | 53 | 104 | 1.0 | 2.0 | 0.07 | 0.04 | 0.04 | 98 | 1022.6 |
| 20260503055055 | 53 | 110 | 0.0 | 0.0 | 0.00 | 0.03 | 0.03 | 98 | 1022.9 |
| 20260503054550 | 54 | 110 | 0.0 | 1.0 | 0.00 | 0.03 | 0.03 | 98 | 1022.7 |
| 20260503054048 | 53 | 109 | 1.0 | 1.0 | 0.00 | 0.03 | 0.03 | 98 | 1022.7 |
| 20260503053546 | 53 | 112 | 1.0 | 1.0 | 0.05 | 0.03 | 0.03 | 98 | 1022.8 |
| 20260503053044 | 53 | 114 | 0.0 | 0.0 | 0.05 | 0.03 | 0.03 | 98 | 1022.5 |
| 20260503052540 | 53 | 114 | 0.0 | 0.0 | 0.00 | 0.02 | 0.02 | 98 | 1022.8 |
| 20260503052037 | 53 | 114 | 0.0 | 0.0 | 0.00 | 0.02 | 0.02 | 98 | 1022.5 |
| 20260503051532 | 54 | 114 | 0.0 | 0.0 | 0.00 | 0.02 | 0.02 | 98 | 1022.9 |
| 20260503051030 | 54 | 112 | 0.0 | 0.0 | 0.00 | 0.02 | 0.02 | 98 | 1022.6 |
| 20260503050526 | 54 | 112 | 0.0 | 0.0 | 0.00 | 0.02 | 0.02 | 98 | 1022.6 |
| 20260503050024 | 54 | 112 | 0.0 | 0.0 | 0.07 | 0.02 | 0.02 | 98 | 1022.6 |
| 20260503045521 | 54 | 124 | 0.0 | 0.0 | 0.07 | 0.02 | 0.02 | 98 | 1022.6 |
| 20260503045018 | 54 | 124 | 0.0 | 0.0 | 0.00 | 0.01 | 0.01 | 98 | 1022.4 |
| 20260503044514 | 54 | 124 | 0.0 | 0.0 | 0.00 | 0.01 | 0.01 | 98 | 1022.6 |
| 20260503044012 | 54 | 124 | 0.0 | 0.0 | 0.00 | 0.01 | 0.01 | 98 | 1022.4 |
| 20260503043508 | 54 | 124 | 0.0 | 0.0 | 0.00 | 0.01 | 0.01 | 98 | 1022.2 |
| 20260503043004 | 54 | 124 | 0.0 | 0.0 | 0.05 | 0.01 | 0.01 | 98 | 1022.4 |
| 20260503042501 | 54 | 124 | 0.0 | 0.0 | 0.05 | 0.01 | 0.01 | 98 | 1022.2 |
| 20260503041957 | 54 | 123 | 0.0 | 0.0 | 0.00 | 0.00 | 0.00 | 98 | 1022.3 |
| 20260503041454 | 54 | 123 | 0.0 | 0.0 | 0.00 | 0.00 | 0.00 | 98 | 1022.1 |
| 20260503040952 | 54 | 123 | 0.0 | 0.0 | 0.00 | 0.00 | 0.00 | 98 | 1022.2 |
| 20260503040449 | 55 | 123 | 0.0 | 0.0 | 0.00 | 0.00 | 0.00 | 98 | 1021.9 |
| 20260503035946 | 55 | 121 | 0.0 | 0.0 | 0.07 | 1.07 | 1.07 | 98 | 1022.2 |
| 20260503035443 | 55 | 115 | 0.0 | 0.0 | 0.07 | 1.07 | 1.07 | 98 | 1022.0 |
| 20260503034941 | 55 | 114 | 0.0 | 0.0 | 0.00 | 1.06 | 1.06 | 98 | 1022.0 |
| 20260503034438 | 55 | 115 | 0.0 | 0.0 | 0.00 | 1.06 | 1.06 | 97 | 1022.1 |
| 20260503033935 | 55 | 124 | 0.0 | 0.0 | 0.00 | 1.06 | 1.06 | 97 | 1021.9 |
| 20260503033432 | 55 | 164 | 0.0 | 0.0 | 0.00 | 1.06 | 1.06 | 97 | 1021.9 |
| 20260503032930 | 55 | 164 | 0.0 | 0.0 | 0.05 | 1.06 | 1.06 | 97 | 1022.0 |
| 20260503032429 | 55 | 166 | 0.0 | 0.0 | 0.00 | 1.05 | 1.05 | 97 | 1021.8 |
| 20260503031926 | 55 | 137 | 0.0 | 0.0 | 0.00 | 1.05 | 1.05 | 97 | 1021.8 |
| 20260503031424 | 55 | 135 | 0.0 | 0.0 | 0.00 | 1.05 | 1.05 | 97 | 1021.8 |
| 20260503030920 | 55 | 135 | 0.0 | 0.0 | 0.00 | 1.05 | 1.05 | 97 | 1021.6 |
| 20260503030417 | 55 | 135 | 0.0 | 0.0 | 0.07 | 1.05 | 1.05 | 97 | 1021.6 |
| 20260503025913 | 55 | 123 | 1.0 | 1.0 | 0.07 | 1.05 | 1.05 | 97 | 1021.5 |
| 20260503025410 | 55 | 110 | 0.0 | 1.0 | 0.00 | 1.04 | 1.04 | 97 | 1021.7 |
| 20260503024908 | 55 | 80 | 1.0 | 2.0 | 0.00 | 1.04 | 1.04 | 97 | 1021.3 |
| 20260503024404 | 55 | 113 | 1.0 | 1.0 | 0.00 | 1.04 | 1.04 | 97 | 1021.5 |
| 20260503023901 | 55 | 92 | 1.0 | 3.0 | 0.07 | 1.04 | 1.04 | 97 | 1021.3 |
| 20260503023358 | 55 | 70 | 2.0 | 2.0 | 0.07 | 1.04 | 1.04 | 97 | 1021.3 |
| 20260503022855 | 56 | 69 | 2.0 | 2.0 | 0.00 | 1.03 | 1.03 | 96 | 1021.0 |
| 20260503022349 | 56 | 87 | 2.0 | 3.0 | 0.00 | 1.03 | 1.03 | 96 | 1021.0 |
| 20260503021846 | 56 | 117 | 0.0 | 1.0 | 0.05 | 1.03 | 1.03 | 96 | 1020.9 |
| 20260503021337 | 56 | 118 | 0.0 | 1.0 | 0.05 | 1.03 | 1.03 | 96 | 1020.8 |
| 20260503020834 | 56 | 109 | 1.0 | 2.0 | 0.00 | 1.02 | 1.02 | 96 | 1020.7 |
| 20260503020333 | 56 | 111 | 2.0 | 3.0 | 0.00 | 1.02 | 1.02 | 96 | 1020.5 |
| 20260503015829 | 56 | 112 | 1.0 | 3.0 | 0.07 | 1.02 | 1.02 | 96 | 1020.4 |
| 20260503015326 | 56 | 95 | 1.0 | 2.0 | 0.07 | 1.02 | 1.02 | 96 | 1020.4 |
| 20260503014821 | 57 | 74 | 2.0 | 2.0 | 0.00 | 1.01 | 1.01 | 96 | 1020.5 |
| 20260503014319 | 57 | 77 | 1.0 | 2.0 | 0.00 | 1.01 | 1.01 | 96 | 1020.5 |
| 20260503013816 | 57 | 50 | 2.0 | 3.0 | 0.05 | 1.01 | 1.01 | 96 | 1020.4 |
| 20260503013314 | 57 | 73 | 2.0 | 2.0 | 0.05 | 1.01 | 1.01 | 96 | 1020.6 |
| 20260503012810 | 57 | 102 | 1.0 | 2.0 | 0.00 | 1.00 | 1.00 | 96 | 1020.2 |
| 20260503012308 | 57 | 106 | 1.0 | 3.0 | 0.00 | 1.00 | 1.00 | 96 | 1020.1 |
| 20260503011805 | 57 | 110 | 1.0 | 2.0 | 0.07 | 1.00 | 1.00 | 96 | 1020.1 |
| 20260503011302 | 57 | 67 | 3.0 | 3.0 | 0.07 | 1.00 | 1.00 | 96 | 1020.0 |
| 20260503010757 | 57 | 107 | 1.0 | 3.0 | 0.00 | 0.99 | 0.99 | 96 | 1019.9 |
| 20260503010254 | 57 | 92 | 1.0 | 2.0 | 0.05 | 0.99 | 0.99 | 96 | 1020.1 |
| 20260503005751 | 57 | 108 | 0.0 | 2.0 | 0.05 | 0.99 | 0.99 | 96 | 1019.9 |
| 20260503005249 | 58 | 78 | 2.0 | 3.0 | 0.00 | 0.98 | 0.98 | 96 | 1019.8 |
| 20260503004744 | 58 | 109 | 3.0 | 3.0 | 0.00 | 0.98 | 0.98 | 95 | 1019.6 |
| 20260503004243 | 58 | 63 | 3.0 | 5.0 | 0.07 | 0.98 | 0.98 | 95 | 1019.5 |
| 20260503003740 | 58 | 114 | 2.0 | 6.0 | 0.07 | 0.98 | 0.98 | 95 | 1019.4 |
| 20260503003237 | 58 | 88 | 1.0 | 2.0 | 0.00 | 0.97 | 0.97 | 95 | 1019.5 |
| 20260503002733 | 58 | 104 | 1.0 | 2.0 | 0.00 | 0.97 | 0.97 | 95 | 1019.5 |
| 20260503002230 | 58 | 103 | 1.0 | 3.0 | 0.05 | 0.97 | 0.97 | 95 | 1019.3 |
| 20260503001726 | 58 | 96 | 1.0 | 2.0 | 0.00 | 0.96 | 0.96 | 95 | 1019.1 |
| 20260503001223 | 58 | 110 | 1.0 | 3.0 | 0.00 | 0.96 | 0.96 | 95 | 1019.4 |
| 20260503000721 | 58 | 98 | 1.0 | 2.0 | 0.07 | 0.96 | 0.96 | 95 | 1019.2 |
| 20260503000218 | 58 | 101 | 2.0 | 2.0 | 0.07 | 0.96 | 0.96 | 94 | 1018.8 |
| 20260502235715 | 59 | 109 | 1.0 | 2.0 | 0.00 | 0.95 | 0.95 | 94 | 1018.8 |
| 20260502235213 | 59 | 84 | 2.0 | 2.0 | 0.05 | 0.95 | 0.95 | 94 | 1018.7 |
| 20260502234709 | 59 | 109 | 1.0 | 2.0 | 0.05 | 0.95 | 0.95 | 94 | 1018.8 |
| 20260502234206 | 59 | 98 | 1.0 | 2.0 | 0.00 | 0.94 | 0.94 | 94 | 1018.6 |
| 20260502233702 | 59 | 107 | 1.0 | 2.0 | 0.07 | 0.94 | 0.94 | 93 | 1018.6 |
| 20260502233159 | 59 | 69 | 1.0 | 2.0 | 0.00 | 0.93 | 0.93 | 93 | 1018.4 |
| 20260502232654 | 60 | 102 | 2.0 | 2.0 | 0.05 | 0.93 | 0.93 | 93 | 1018.1 |
| 20260502232152 | 60 | 92 | 2.0 | 2.0 | 0.05 | 0.93 | 0.93 | 93 | 1018.3 |
| 20260502231649 | 60 | 127 | 0.0 | 1.0 | 0.00 | 0.92 | 0.92 | 93 | 1018.1 |
| 20260502231147 | 60 | 124 | 1.0 | 1.0 | 0.07 | 0.92 | 0.92 | 93 | 1018.1 |
| 20260502230646 | 60 | 84 | 2.0 | 2.0 | 0.07 | 0.92 | 0.92 | 92 | 1018.1 |
| 20260502230144 | 60 | 98 | 2.0 | 5.0 | 0.00 | 0.91 | 0.91 | 93 | 1017.9 |
| 20260502225639 | 61 | 75 | 3.0 | 3.0 | 0.07 | 0.91 | 0.91 | 93 | 1017.9 |
| 20260502225136 | 61 | 112 | 1.0 | 2.0 | 0.07 | 0.91 | 0.91 | 93 | 1017.7 |
| 20260502224632 | 60 | 155 | 0.0 | 2.0 | 0.05 | 0.90 | 0.90 | 94 | 1017.6 |
| 20260502224129 | 60 | 72 | 2.0 | 5.0 | 0.05 | 0.90 | 0.90 | 94 | 1018.0 |
| 20260502223627 | 60 | 98 | 1.0 | 3.0 | 0.00 | 0.89 | 0.89 | 95 | 1017.8 |
| 20260502223125 | 60 | 82 | 1.0 | 2.0 | 0.07 | 0.89 | 0.89 | 95 | 1018.2 |
| 20260502222622 | 60 | 92 | 2.0 | 3.0 | 0.07 | 0.89 | 0.89 | 96 | 1018.0 |
| 20260502222118 | 60 | 90 | 1.0 | 3.0 | 0.05 | 0.88 | 0.88 | 96 | 1017.9 |
| 20260502221614 | 60 | 105 | 1.0 | 3.0 | 0.05 | 0.88 | 0.88 | 97 | 1018.0 |
| 20260502221111 | 60 | 79 | 2.0 | 3.0 | 0.00 | 0.87 | 0.87 | 97 | 1017.8 |
| 20260502220608 | 59 | 71 | 2.0 | 2.0 | 0.07 | 0.87 | 0.87 | 97 | 1017.9 |
| 20260502220104 | 59 | 68 | 2.0 | 2.0 | 0.07 | 0.87 | 0.87 | 97 | 1017.8 |
| 20260502215601 | 59 | 114 | 0.0 | 3.0 | 0.05 | 0.86 | 0.86 | 97 | 1017.8 |
| 20260502215058 | 59 | 106 | 1.0 | 2.0 | 0.05 | 0.86 | 0.86 | 97 | 1017.7 |
| 20260502214555 | 60 | 60 | 1.0 | 2.0 | 0.00 | 0.85 | 0.85 | 97 | 1017.5 |
| 20260502214052 | 60 | 103 | 1.0 | 3.0 | 0.07 | 0.85 | 0.85 | 97 | 1017.6 |
| 20260502213549 | 59 | 101 | 2.0 | 3.0 | 0.07 | 0.85 | 0.85 | 97 | 1017.5 |
| 20260502213047 | 60 | 93 | 1.0 | 3.0 | 0.05 | 0.84 | 0.84 | 97 | 1017.5 |
| 20260502212546 | 59 | 111 | 1.0 | 2.0 | 0.05 | 0.84 | 0.84 | 97 | 1017.2 |
| 20260502212043 | 59 | 65 | 2.0 | 2.0 | 0.00 | 0.83 | 0.83 | 97 | 1017.3 |
| 20260502211538 | 60 | 121 | 0.0 | 2.0 | 0.07 | 0.83 | 0.83 | 97 | 1017.4 |
| 20260502211036 | 59 | 96 | 1.0 | 2.0 | 0.07 | 0.83 | 0.83 | 97 | 1017.4 |
| 20260502210532 | 59 | 116 | 1.0 | 2.0 | 0.00 | 0.82 | 0.82 | 97 | 1017.5 |
| 20260502210030 | 60 | 101 | 1.0 | 2.0 | 0.05 | 0.82 | 0.82 | 97 | 1017.5 |
| 20260502205526 | 60 | 86 | 1.0 | 2.0 | 0.00 | 0.81 | 0.81 | 97 | 1017.8 |
| 20260502205023 | 59 | 113 | 1.0 | 3.0 | 0.07 | 0.81 | 0.81 | 97 | 1017.6 |
| 20260502204520 | 59 | 100 | 1.0 | 2.0 | 0.07 | 0.81 | 0.81 | 97 | 1017.6 |
| 20260502204018 | 59 | 55 | 2.0 | 3.0 | 0.00 | 0.80 | 0.80 | 97 | 1017.6 |
| 20260502203515 | 59 | 55 | 2.0 | 5.0 | 0.07 | 0.80 | 0.80 | 97 | 1017.6 |
| 20260502203012 | 60 | 52 | 2.0 | 6.0 | 0.00 | 0.79 | 0.79 | 97 | 1017.3 |
| 20260502202508 | 60 | 56 | 3.0 | 5.0 | 0.05 | 0.79 | 0.79 | 97 | 1017.4 |
| 20260502202006 | 60 | 65 | 4.0 | 6.0 | 0.00 | 0.78 | 0.78 | 97 | 1017.3 |
| 20260502201502 | 60 | 0 | 4.0 | 6.0 | 0.07 | 0.78 | 0.78 | 97 | 1017.2 |
| 20260502200958 | 60 | 67 | 2.0 | 6.0 | 0.07 | 0.78 | 0.78 | 97 | 1017.5 |
| 20260502200454 | 60 | 24 | 3.0 | 3.0 | 0.05 | 0.77 | 0.77 | 97 | 1017.3 |
| 20260502195952 | 59 | 52 | 2.0 | 6.0 | 0.05 | 0.77 | 0.77 | 97 | 1017.4 |
| 20260502195450 | 59 | 23 | 5.0 | 6.0 | 0.00 | 0.76 | 0.76 | 98 | 1017.4 |
| 20260502194945 | 59 | 89 | 1.0 | 3.0 | 0.07 | 0.76 | 0.76 | 98 | 1017.5 |
| 20260502194443 | 59 | 84 | 1.0 | 3.0 | 0.00 | 0.75 | 0.75 | 98 | 1017.5 |
| 20260502193938 | 58 | 68 | 3.0 | 3.0 | 0.05 | 0.75 | 0.75 | 98 | 1017.5 |
| 20260502193436 | 58 | 80 | 2.0 | 3.0 | 0.05 | 0.75 | 0.75 | 98 | 1017.5 |
| 20260502192931 | 58 | 44 | 3.0 | 6.0 | 0.07 | 0.74 | 0.74 | 98 | 1017.6 |
| 20260502192428 | 57 | 1 | 4.0 | 6.0 | 0.07 | 0.74 | 0.74 | 98 | 1017.7 |
| 20260502191925 | 58 | 39 | 5.0 | 8.0 | 0.00 | 0.73 | 0.73 | 98 | 1017.6 |
| 20260502191423 | 59 | 21 | 4.0 | 5.0 | 0.05 | 0.73 | 0.73 | 98 | 1017.5 |
| 20260502190920 | 59 | 49 | 5.0 | 6.0 | 0.05 | 0.73 | 0.73 | 98 | 1017.4 |
| 20260502190417 | 59 | 15 | 3.0 | 3.0 | 0.07 | 0.72 | 0.72 | 98 | 1017.2 |
| 20260502185914 | 59 | 94 | 3.0 | 6.0 | 0.07 | 0.72 | 0.72 | 99 | 1017.2 |
| 20260502185409 | 59 | 25 | 5.0 | 7.0 | 0.05 | 0.71 | 0.71 | 99 | 1017.3 |
| 20260502184907 | 59 | 46 | 5.0 | 6.0 | 0.05 | 0.71 | 0.71 | 99 | 1017.4 |